Port Angeles, WA

1:33 AM PDT on August 22, 2017 (GMT -0700)
Fairchild International

Weather History for KCLM - March, 2013

Change the Weather History Date:

Wednesday, March 13, 2013

  Actual Average Record
Temperature  
Mean Temperature 50 °F -  
Max Temperature 55 °F 50 °F 64 °F (1965)
Min Temperature 46 °F 36 °F 27 °F (2006)
Degree Days  
Heating Degree Days 15    
Moisture  
Dew Point 47 °F    
Average Humidity 92    
Maximum Humidity 97    
Minimum Humidity 83    
Precipitation  
Precipitation 0.07 in - - ()
Sea Level Pressure  
Sea Level Pressure 30.09 in    
Wind  
Wind Speed 3 mph (East)    
Max Wind Speed 9 mph    
Max Gust Speed -    
Visibility 7 miles    
Events Fog , Rain    
Averages and records for this station are not official NWS values.
T = Trace of Precipitation, MM = Missing Value Source: NWS Daily Summary

Daily Weather History Graph

Daily Weather History Graph

Search for Another Location

Airport or City:

Trip Planner

Search our weather history database for the weather conditions in past years. The results will help you decide how hot, cold, wet, or windy it might be!

Date:

Astronomy

Mar. 13, 2013 Rise Set
Actual Time 7:30 AM PDT 7:17 PM PDT
Civil Twilight 6:59 AM PDT 7:48 PM PDT
Nautical Twilight 6:23 AM PDT 8:24 PM PDT
Astronomical Twilight 5:46 AM PDT 9:01 PM PDT
Moon 8:01 AM PDT (3/13) 9:54 PM PDT (3/13)
Length of Visible Light 12h 48m
Length of Day
11h 46m
Waxing Crescent, 4% of the Moon is Illuminated
Mar 13
Waxing Crescent
Mar 19
First Quarter
Mar 27
Full
Apr 2
Last Quarter
Apr 10
New

Hourly Weather History & Observations

Time (PDT) Temp. Windchill Dew Point Humidity Pressure Visibility Wind Dir Wind Speed Gust Speed Precip Events Conditions
12:04 AM 48.0 °F - 46.9 °F 96% 30.05 in 0.5 mi Calm Calm - N/A Fog Fog
12:26 AM 48.0 °F - 46.9 °F 96% 30.04 in 1.0 mi Calm Calm - N/A   Mist
12:53 AM 48.0 °F - 46.0 °F 93% 30.05 in 3.0 mi WSW 5.8 mph - 0.01 in   Overcast
1:20 AM 46.9 °F - 46.0 °F 97% 30.03 in 10.0 mi ESE 5.8 mph - N/A   Mostly Cloudy
1:53 AM 48.0 °F - 46.0 °F 93% 30.05 in 10.0 mi ENE 3.5 mph - N/A   Mostly Cloudy
2:10 AM 48.0 °F - 46.9 °F 96% 30.05 in 10.0 mi East 3.5 mph - N/A   Overcast
2:53 AM 48.0 °F - 46.9 °F 96% 30.08 in 10.0 mi ESE 5.8 mph - 0.01 in Rain Light Rain
3:17 AM 48.9 °F - 46.9 °F 93% 30.07 in 10.0 mi SSE 8.1 mph - 0.02 in Rain Light Rain
3:33 AM 48.9 °F - 46.9 °F 93% 30.08 in 10.0 mi SSE 9.2 mph - 0.02 in   Overcast
3:51 AM 50.0 °F - 46.4 °F 87% 30.08 in 10.0 mi SE 8.1 mph - 0.02 in   Overcast
3:53 AM 50.0 °F - 46.9 °F 89% 30.09 in 10.0 mi ESE 5.8 mph - 0.02 in   Overcast
4:03 AM 50.0 °F - 46.9 °F 89% 30.09 in 10.0 mi SSE 5.8 mph - N/A   Overcast
4:53 AM 48.9 °F - 46.9 °F 93% 30.09 in 10.0 mi SE 4.6 mph - N/A   Overcast
5:06 AM 48.9 °F - 46.9 °F 93% 30.09 in 10.0 mi SSE 4.6 mph - N/A   Overcast
5:34 AM 48.9 °F - 46.9 °F 93% 30.09 in 10.0 mi SSE 8.1 mph - N/A   Overcast
5:53 AM 48.9 °F - 46.0 °F 90% 30.09 in 10.0 mi SE 4.6 mph - N/A   Mostly Cloudy
6:53 AM 46.0 °F - 44.1 °F 93% 30.09 in 10.0 mi Calm Calm - N/A   Scattered Clouds
7:45 AM 46.9 °F - 45.0 °F 93% 30.08 in 9.0 mi Calm Calm - N/A   Mostly Cloudy
7:49 AM 46.4 °F - 44.6 °F 93% 30.08 in 1.8 mi Calm Calm - N/A   Mostly Cloudy
7:53 AM 46.0 °F 43.9 °F 45.0 °F 96% 30.09 in 1.0 mi West 4.6 mph - N/A   Mostly Cloudy
7:55 AM 46.0 °F 43.9 °F 44.1 °F 93% 30.09 in 0.8 mi West 4.6 mph - N/A   Mostly Cloudy
8:08 AM 46.9 °F - 45.0 °F 93% 30.10 in 0.5 mi WNW 4.6 mph - N/A Fog Fog
8:23 AM 46.9 °F - 46.0 °F 97% 30.10 in 2.0 mi WNW 5.8 mph - N/A   Overcast
8:37 AM 46.9 °F - 46.0 °F 97% 30.11 in 1.5 mi WNW 5.8 mph - N/A   Overcast
8:53 AM 48.0 °F - 46.9 °F 96% 30.12 in 3.0 mi NW 4.6 mph - N/A   Overcast
9:19 AM 48.0 °F - 46.9 °F 96% 30.11 in 6.0 mi WNW 3.5 mph - 0.01 in Rain Light Rain
9:53 AM 48.9 °F - 46.9 °F 93% 30.10 in 10.0 mi NNE 4.6 mph - 0.02 in Rain Light Rain
10:18 AM 48.9 °F - 46.9 °F 93% 30.11 in 9.0 mi East 4.6 mph - 0.01 in   Overcast
10:34 AM 50.0 °F - 48.0 °F 93% 30.11 in 10.0 mi Calm Calm - 0.01 in Rain Light Rain
10:53 AM 50.0 °F - 46.9 °F 89% 30.12 in 10.0 mi East 3.5 mph - 0.01 in   Overcast
11:37 AM 50.0 °F - 48.0 °F 93% 30.13 in 10.0 mi Calm Calm - N/A   Overcast
11:53 AM 51.1 °F - 48.0 °F 89% 30.13 in 10.0 mi Calm Calm - N/A   Overcast
12:03 PM 51.1 °F - 48.0 °F 89% 30.13 in 10.0 mi Calm Calm - N/A   Overcast
12:37 PM 52.0 °F - 48.0 °F 86% 30.13 in 10.0 mi North 4.6 mph - N/A   Overcast
12:44 PM 51.1 °F - 48.9 °F 92% 30.13 in 10.0 mi Calm Calm - N/A   Overcast
12:53 PM 53.1 °F - 48.9 °F 86% 30.14 in 10.0 mi ENE 3.5 mph - N/A   Overcast
1:25 PM 51.1 °F - 48.9 °F 92% 30.14 in 10.0 mi North 4.6 mph - N/A   Overcast
1:53 PM 54.0 °F - 48.9 °F 83% 30.13 in 10.0 mi Calm Calm - N/A   Mostly Cloudy
2:53 PM 51.1 °F - 48.0 °F 89% 30.11 in 10.0 mi NE 6.9 mph - N/A   Mostly Cloudy
3:09 PM 51.1 °F - 48.0 °F 89% 30.10 in 10.0 mi East 8.1 mph - N/A   Mostly Cloudy
3:30 PM 52.0 °F - 48.0 °F 86% 30.10 in 10.0 mi NNE 3.5 mph - N/A   Mostly Cloudy
3:53 PM 50.0 °F - 46.9 °F 89% 30.10 in 8.0 mi NNE 4.6 mph - N/A   Overcast
4:53 PM 50.0 °F - 46.9 °F 89% 30.10 in 10.0 mi Calm Calm - N/A   Overcast
5:20 PM 50.0 °F - 46.9 °F 89% 30.09 in 10.0 mi WNW 3.5 mph - 0.00 in   Overcast
5:53 PM 50.0 °F - 46.9 °F 89% 30.09 in 10.0 mi Calm Calm - 0.00 in   Overcast
6:19 PM 50.0 °F - 46.9 °F 89% 30.08 in 10.0 mi Calm Calm - N/A   Overcast
6:53 PM 50.0 °F - 46.9 °F 89% 30.08 in 10.0 mi WNW 3.5 mph - N/A   Overcast
7:53 PM 48.9 °F - 46.9 °F 93% 30.07 in 10.0 mi Calm Calm - N/A   Overcast
8:04 PM 48.9 °F - 46.9 °F 93% 30.06 in 10.0 mi Calm Calm - N/A   Overcast
8:53 PM 48.9 °F - 46.9 °F 93% 30.06 in 10.0 mi Calm Calm - N/A   Overcast
9:53 PM 48.9 °F - 48.0 °F 97% 30.06 in 5.0 mi West 3.5 mph - N/A   Overcast
10:11 PM 48.9 °F - 46.9 °F 93% 30.06 in 2.0 mi Calm Calm - N/A   Overcast
10:21 PM 48.9 °F - 46.9 °F 93% 30.06 in 1.0 mi Calm Calm - N/A   Overcast
10:29 PM 48.0 °F - 46.9 °F 96% 30.05 in 0.5 mi Calm Calm - N/A Fog Fog
10:53 PM 46.9 °F - 46.0 °F 97% 30.06 in 0.5 mi Calm Calm - N/A Fog Fog
11:00 PM 48.0 °F - 46.0 °F 93% 30.05 in 0.2 mi Calm Calm - N/A Fog Fog
11:53 PM 48.0 °F - 46.9 °F 96% 30.05 in 0.2 mi WSW 3.5 mph - N/A Fog Fog